KDYR  Dyersburg Regional Airport

Add Bookmark

Dyersburg, Tennessee, United States

Status Useage
Operational Public
Latitude Longitude
35° 59' 52" N 89° 24' 23" W
35.997972 -89.406583
Local (DST -5) UTC (GMT -6)
Sep 22, 2014 03:11 Sep 22, 2014 08:11
Sunrise-Sunset Local UTC
Begin Civil Twilight 06:19 11:19
Sunrise 06:44 11:44
Sunset 06:55 23:55
End Civil Twilight 07:20 00:20

Current Weather

METAR Observed VFR
KDYR 220755Z 02007KT 10SM CLR 16/07 A3014 Mon, Sep 22, 2014 @ 07:55 UTC
(16 Minutes ago)
Visual Flight Rules
Wind Visibility Clouds Conditions
020° at 7 knots (8 mph) 10 statute miles
  • Clear skies
  • No significant weather
Temperatures Readings Precipitation
Current Temp 16°C (61°F)
Dewpoint 7°C (45°F)
Humidity 55%
Altimeter 30.14"Hg
Sea Level Pressure 1021mb
Field Elevation 337'
None Recorded

Additional weather within a 50nm radius of KDYR

Map ICAO Location
KHKA 20.9nm W (261°)
KUCY 30.7nm N (042°)
KMKL 33.8nm S (135°)
KNQA 44.6nm S (211°)

24 Hour Weather History

Loading
-

24 Hour Weather Graphs

Loading
-

CheckWX.com is intended as a tool to help pilots better visualize weather data. It is not intended as a substitute for an official weather briefing obtained from a Flight Service Station. CheckWX.com does not meet the FAA requirements for an official pre-flight weather briefing. Therefore, it's important that pilots still call and obtain an official FSS pre-flight weather briefing.